Total_Precipitation_Accumulation
0.70 0.89 1.27 1.72 2.18 1.53 0.85 0.55 0.34 0.31 0.23 0.16 0.09 0.08 0.15 0.30 0.57 1.10 1.01 0.62 0.39 0.37 0.42 0.52 0.72 0.74 0.68 0.63 0.70 0.83 0.97 1.11 1.09 1.02 0.90 0.71 0.63 0.55 0.58 0.56 0.54 0.51 0.43 0.48 0.51 0.52 0.50 0.45 0.39
0.70 1.33 1.78 2.43 2.14 1.13 0.82 0.50 0.42 0.27 0.18 0.14 0.08 0.06 0.09 0.14 0.20 0.53 0.90 0.77 0.34 0.27 0.32 0.41 0.61 0.71 0.69 0.72 0.84 0.92 0.99 1.03 0.97 0.88 0.75 0.65 0.61 0.58 0.55 0.59 0.61 0.57 0.49 0.52 0.56 0.64 0.56 0.45 0.38
0.81 1.55 2.08 2.28 1.37 0.87 0.76 0.50 0.39 0.23 0.16 0.13 0.09 0.06 0.09 0.21 0.29 0.55 0.77 0.50 0.33 0.27 0.32 0.44 0.62 0.68 0.70 0.76 0.84 0.92 0.93 0.90 0.86 0.81 0.73 0.67 0.63 0.60 0.59 0.61 0.65 0.62 0.53 0.50 0.58 0.62 0.55 0.49 0.40
1.16 1.90 2.14 1.65 0.99 0.61 0.49 0.47 0.33 0.23 0.16 0.11 0.08 0.10 0.14 0.21 0.32 0.50 0.50 0.38 0.34 0.34 0.39 0.43 0.62 0.66 0.64 0.77 0.82 0.83 0.75 0.69 0.75 0.77 0.71 0.68 0.62 0.62 0.64 0.63 0.60 0.55 0.51 0.53 0.60 0.60 0.55 0.53 0.43
1.50 2.11 2.01 1.33 0.85 0.57 0.43 0.35 0.28 0.24 0.24 0.18 0.10 0.16 0.30 0.30 0.32 0.38 0.39 0.36 0.39 0.48 0.55 0.50 0.63 0.61 0.60 0.73 0.83 0.83 0.83 0.80 0.82 0.83 0.78 0.75 0.67 0.65 0.68 0.63 0.53 0.48 0.50 0.57 0.71 0.70 0.53 0.49 0.44
1.94 2.11 2.17 1.46 0.95 0.64 0.52 0.35 0.26 0.24 0.21 0.20 0.15 0.22 0.35 0.35 0.37 0.44 0.43 0.49 0.51 0.52 0.53 0.54 0.68 0.67 0.65 0.73 0.78 0.74 0.78 0.89 0.92 0.85 0.83 1.00 0.84 0.71 0.63 0.59 0.53 0.50 0.50 0.57 0.69 0.70 0.54 0.47 0.50
2.05 2.15 1.80 1.19 0.96 0.92 0.63 0.34 0.30 0.30 0.27 0.23 0.18 0.29 0.39 0.43 0.33 0.35 0.40 0.45 0.47 0.45 0.48 0.51 0.58 0.65 0.68 0.77 0.86 0.85 0.88 0.97 1.01 0.87 0.87 0.96 0.74 0.59 0.54 0.53 0.52 0.53 0.58 0.63 0.66 0.69 0.61 0.57 0.58
1.37 1.51 1.37 1.13 1.02 0.91 0.52 0.28 0.24 0.23 0.26 0.19 0.18 0.28 0.49 0.48 0.35 0.39 0.43 0.48 0.50 0.51 0.53 0.50 0.54 0.66 0.79 0.82 0.84 0.94 0.99 0.97 1.02 0.90 0.88 0.85 0.61 0.50 0.52 0.48 0.46 0.48 0.54 0.63 0.68 0.70 0.65 0.61 0.60
1.28 1.42 1.47 1.35 1.01 0.72 0.45 0.33 0.25 0.19 0.21 0.19 0.16 0.18 0.26 0.31 0.34 0.46 0.54 0.53 0.58 0.58 0.60 0.56 0.50 0.52 0.68 0.81 0.75 0.97 1.08 1.05 0.97 0.93 0.93 0.83 0.57 0.50 0.51 0.48 0.55 0.56 0.64 0.71 0.73 0.71 0.63 0.57 0.51
1.27 1.45 1.42 1.05 0.75 0.53 0.37 0.31 0.29 0.29 0.31 0.26 0.20 0.18 0.21 0.28 0.36 0.44 0.47 0.52 0.55 0.55 0.50 0.50 0.48 0.47 0.49 0.58 0.85 1.21 1.06 0.97 0.81 0.84 0.81 0.81 0.75 0.70 0.55 0.56 0.69 0.73 0.74 0.76 0.75 0.73 0.60 0.46 0.38
1.05 1.01 0.89 0.86 0.58 0.38 0.32 0.30 0.28 0.28 0.35 0.27 0.24 0.21 0.23 0.28 0.33 0.34 0.37 0.42 0.46 0.48 0.47 0.44 0.42 0.42 0.45 0.60 0.73 0.95 1.02 1.00 0.88 0.76 0.76 0.84 0.79 0.69 0.59 0.53 0.58 0.66 0.71 0.65 0.65 0.64 0.48 0.43 0.45
0.90 0.74 0.60 0.56 0.41 0.36 0.39 0.33 0.28 0.27 0.29 0.20 0.18 0.21 0.26 0.31 0.32 0.30 0.34 0.42 0.47 0.49 0.51 0.51 0.43 0.43 0.46 0.51 0.52 0.60 0.68 0.73 0.71 0.64 0.65 0.78 0.73 0.68 0.67 0.66 0.63 0.63 0.65 0.71 0.67 0.63 0.55 0.50 0.51
0.78 0.65 0.52 0.40 0.40 0.38 0.38 0.34 0.32 0.30 0.24 0.21 0.21 0.26 0.31 0.33 0.32 0.32 0.34 0.37 0.43 0.46 0.51 0.51 0.48 0.45 0.45 0.46 0.46 0.45 0.55 0.59 0.61 0.65 0.62 0.65 0.69 0.68 0.67 0.64 0.71 0.72 0.69 0.73 0.70 0.61 0.56 0.54 0.51
0.70 0.62 0.58 0.45 0.40 0.44 0.40 0.33 0.33 0.35 0.26 0.23 0.21 0.25 0.25 0.30 0.34 0.35 0.36 0.39 0.40 0.41 0.47 0.49 0.50 0.53 0.52 0.49 0.48 0.49 0.55 0.60 0.60 0.54 0.52 0.58 0.59 0.61 0.71 0.76 0.78 0.79 0.78 0.85 0.83 0.65 0.63 0.65 0.59
0.55 0.59 0.58 0.48 0.43 0.47 0.46 0.48 0.40 0.37 0.31 0.31 0.26 0.22 0.23 0.25 0.26 0.32 0.36 0.38 0.40 0.43 0.47 0.49 0.53 0.62 0.62 0.58 0.58 0.53 0.59 0.61 0.61 0.62 0.61 0.65 0.66 0.68 0.77 0.86 0.89 0.87 0.85 0.87 1.09 0.98 0.74 0.69 0.64
0.63 0.67 0.76 0.51 0.45 0.54 0.60 0.61 0.40 0.38 0.33 0.36 0.30 0.26 0.22 0.23 0.24 0.26 0.28 0.35 0.37 0.47 0.57 0.65 0.57 0.63 0.67 0.67 0.70 0.69 0.71 0.74 0.70 0.69 0.72 0.73 0.77 0.80 0.89 0.94 0.85 0.92 0.99 1.02 1.17 1.24 0.93 0.75 0.74
0.74 0.73 0.69 0.53 0.41 0.49 0.57 0.54 0.40 0.36 0.29 0.28 0.28 0.27 0.23 0.21 0.22 0.21 0.23 0.28 0.35 0.47 0.60 0.72 0.70 0.68 0.75 0.81 0.88 0.90 0.86 0.88 0.85 0.86 0.83 0.85 0.89 0.96 1.02 1.04 0.99 0.99 1.01 1.11 1.11 1.31 1.27 1.06 0.93
0.75 0.61 0.52 0.47 0.44 0.48 0.51 0.42 0.35 0.30 0.26 0.23 0.23 0.24 0.20 0.18 0.20 0.20 0.18 0.21 0.28 0.41 0.54 0.68 0.81 0.93 0.99 1.05 1.11 1.16 1.09 1.03 1.07 1.10 1.08 1.09 1.14 1.11 1.17 1.20 1.22 1.29 1.27 1.25 1.18 1.35 1.45 1.24 1.18
0.59 0.51 0.44 0.38 0.39 0.38 0.34 0.31 0.30 0.27 0.26 0.21 0.19 0.21 0.17 0.15 0.15 0.13 0.13 0.18 0.24 0.33 0.44 0.62 0.97 1.39 1.58 1.48 1.43 1.51 1.63 1.62 1.53 1.51 1.49 1.55 1.55 1.55 1.58 1.55 1.53 1.49 1.44 1.50 1.49 1.71 2.01 1.56 1.35
0.53 0.54 0.49 0.40 0.29 0.27 0.26 0.24 0.21 0.21 0.23 0.20 0.18 0.19 0.18 0.16 0.14 0.10 0.10 0.14 0.20 0.36 0.51 0.65 0.92 1.36 1.56 1.68 1.78 1.99 2.20 2.11 1.98 1.97 1.92 2.00 2.02 2.19 2.15 2.13 2.10 2.00 1.98 1.96 1.89 1.96 2.21 1.87 1.67
0.49 0.49 0.47 0.39 0.26 0.21 0.18 0.17 0.16 0.17 0.18 0.16 0.16 0.18 0.17 0.15 0.14 0.13 0.12 0.16 0.20 0.30 0.42 0.57 0.74 1.05 1.40 1.67 1.92 2.22 2.47 2.47 2.36 2.19 2.16 2.23 2.29 2.45 2.59 2.58 2.61 2.43 2.28 2.29 2.22 2.16 2.26 2.30 2.08
0.43 0.32 0.28 0.25 0.28 0.27 0.19 0.24 0.18 0.19 0.19 0.18 0.18 0.18 0.18 0.18 0.17 0.18 0.17 0.18 0.21 0.26 0.34 0.47 0.64 0.90 1.15 1.40 1.82 2.27 2.59 2.71 2.63 2.52 2.47 2.43 2.45 2.51 2.72 2.75 2.85 2.68 2.56 2.50 2.42 2.23 2.32 2.58 2.49
0.30 0.25 0.22 0.22 0.22 0.21 0.16 0.20 0.20 0.19 0.22 0.21 0.21 0.21 0.19 0.18 0.20 0.22 0.23 0.25 0.27 0.27 0.33 0.43 0.57 0.80 1.05 1.28 1.64 2.07 2.37 2.62 2.78 2.61 2.48 2.50 2.53 2.56 2.68 2.82 2.93 2.78 2.64 2.57 2.67 2.54 2.48 2.41 2.37
0.25 0.24 0.20 0.18 0.23 0.23 0.13 0.21 0.30 0.23 0.21 0.20 0.18 0.18 0.19 0.21 0.25 0.29 0.37 0.42 0.42 0.36 0.40 0.48 0.55 0.70 0.86 1.00 1.24 1.49 1.84 2.14 2.50 2.50 2.43 2.55 2.54 2.47 2.40 2.56 2.79 2.72 2.70 2.70 2.77 2.80 2.74 2.72 2.72
0.19 0.26 0.31 0.32 0.33 0.22 0.12 0.24 0.37 0.29 0.22 0.21 0.21 0.21 0.22 0.24 0.28 0.36 0.50 0.55 0.57 0.50 0.44 0.45 0.56 0.62 0.68 0.79 0.92 1.08 1.35 1.56 1.94 2.26 2.25 2.17 2.23 2.28 2.34 2.38 2.39 2.39 2.48 2.61 2.84 2.80 2.68 2.67 2.76
0.14 0.26 0.41 0.46 0.41 0.28 0.25 0.42 0.47 0.34 0.27 0.24 0.22 0.23 0.27 0.31 0.37 0.54 0.68 0.70 0.69 0.62 0.53 0.52 0.61 0.64 0.66 0.71 0.74 0.84 1.01 1.14 1.32 1.55 1.67 1.71 1.78 2.00 2.11 2.24 2.22 2.23 2.30 2.38 2.50 2.54 2.54 2.49 2.47
0.15 0.19 0.22 0.33 0.31 0.31 0.39 0.52 0.46 0.29 0.27 0.28 0.30 0.32 0.42 0.50 0.56 0.70 0.82 0.84 0.76 0.69 0.62 0.60 0.65 0.73 0.73 0.72 0.74 0.84 0.90 0.94 1.06 1.10 1.26 1.45 1.50 1.56 1.70 1.82 1.94 2.05 2.11 2.18 2.32 2.39 2.37 2.38 2.38
0.11 0.16 0.24 0.37 0.45 0.45 0.43 0.50 0.49 0.38 0.38 0.38 0.42 0.47 0.57 0.68 0.75 0.84 0.97 0.98 0.83 0.71 0.61 0.59 0.63 0.75 0.93 1.04 0.99 0.94 1.01 1.08 1.30 1.34 1.19 1.19 1.37 1.45 1.50 1.57 1.65 1.82 1.95 2.04 2.11 2.21 2.30 2.29 2.31
0.17 0.25 0.32 0.42 0.44 0.60 0.70 0.68 0.59 0.58 0.58 0.59 0.62 0.67 0.75 0.87 0.87 0.84 0.92 0.99 0.87 0.68 0.61 0.57 0.58 0.69 0.84 0.87 0.93 0.93 0.97 1.07 1.35 1.57 1.52 1.34 1.35 1.39 1.37 1.32 1.41 1.56 1.69 1.81 1.93 1.98 1.99 2.01 2.15
0.26 0.37 0.52 0.73 0.70 0.65 0.80 0.82 0.65 0.59 0.63 0.64 0.64 0.63 0.68 0.79 0.80 0.81 0.84 0.81 0.71 0.56 0.49 0.47 0.48 0.60 0.71 0.71 0.77 0.84 0.86 0.95 1.07 1.19 1.22 1.15 1.09 1.07 1.13 1.19 1.21 1.30 1.47 1.59 1.64 1.66 1.69 1.75 1.88